Skip Page Navigation
NASA JPL Caltech
NASA Logo - Jet Propulsion Laboratory + View the NASA Portal
+ Center for Near-Earth Object Studies
JPL Home Earth Solar System Stars & Galaxies Technology
JPL Solar System Dynamics
BODIES ORBITS EPHEMERIDES TOOLS PHYSICAL DATA DISCOVERY FAQ SITE MAP

Significant website upgrade scheduled for September 27. More details available here.

JPL Small-Body Database Browser
Search: [ help ]  
15904 Halstead (1997 SD11)
Classification: Main-belt Asteroid          SPK-ID: 2015904
Ephemeris | Orbit Diagram | Orbital Elements | Mission Design | Physical Parameters | Discovery Circumstances ]

[ hide orbit diagram ]

For accurate long-term ephemerides, please instead use our Horizons system.This orbit viewer was implemented using two-body methods, and hence should not be used for determining accurate long-term trajectories (over several years or decades) or planetary encounter circumstances.


Orbital Elements at Epoch 2459396.5 (2021-Jul-01.0) TDB
Reference: JPL 46 (heliocentric ecliptic J2000)
 Element Value Uncertainty (1-sigma)   Units 
e .02631692100290099 1.9098e-08  
a 2.163083670347225 5.2024e-09 au
q 2.106157968272032 4.1863e-08 au
i 3.046250703116088 2.3409e-07 deg
node 242.0982792446515 1.1651e-05 deg
peri 268.7206569915593 1.9775e-05 deg
M 15.15656475671985 1.7334e-05 deg
tp 2459347.577720602632
(2021-May-13.07772060)
5.588e-05 TDB
period 1162.006092128752
3.18
4.1921e-06
1.148e-08
d
yr
n .3098090469908752 1.1177e-09 deg/d
Q 2.220009372422418 5.3393e-09 au
  Orbit Determination Parameters
   # obs. used (total)      2617  
   data-arc span      15052 days (41.21 yr)  
   first obs. used      1980-03-23  
   last obs. used      2021-06-08  
   planetary ephem.      DE441  
   SB-pert. ephem.      SB441-N16  
   condition code      0  
   norm. resid. RMS      .46497  
   source      ORB  
   producer      Otto Matic  
   solution date      2021-Aug-25 14:05:07  

Additional Information
 Earth MOID = 1.11882 au 
 Jupiter MOID = 2.7541 au 
 T_jup = 3.693 
[ show covariance matrix ]

Ephemeris | Orbit Diagram | Orbital Elements | Mission Design | Physical Parameters | Discovery Circumstances ]

Physical Parameter Table
Parameter Symbol Value Units Sigma Reference Notes
absolute magnitude H 14.26   n/a MPO614063  
diameter diameter 3.812 km 0.150 urn:nasa:pds:neowise_diameters_albedos::2.0[mainbelt] (http://adsabs.harvard.edu/abs/2011ApJ...741...68M)  
geometric albedo albedo 0.211   0.061 urn:nasa:pds:neowise_diameters_albedos::2.0[mainbelt] (http://adsabs.harvard.edu/abs/2011ApJ...741...68M)  

15904 Halstead           Discovered 1997 Sept. 29 by T. Stafford at the Zeno Observatory.
Susan Ruth Halstead (b. 1959) is the sister of the discoverer.
NOTE: some special characters may not display properly (any characters within {} are an attempt to place the proper accent above a character)
Reference: 20040713/MPCPages.arcLast Updated: 2004-07-14

Alternate Designations
 1997 SD11 = 1980 FB6 = 1981 QU4 = 1998 YF 
Ephemeris | Orbit Diagram | Orbital Elements | Mission Design | Physical Parameters | Discovery Circumstances ]
ABOUT SSD CREDITS/AWARDS PRIVACY/COPYRIGHT GLOSSARY LINKS
FirstGov 2021-Sep-22 03:32 UT
(server date/time)  
NASA Home Page
Site Manager:   Ryan S. Park
Webmaster  Alan B. Chamberlin